Change the Weather History Date:

Thursday, November 3, 2011

  Actual Average Record
Temperature  
Mean Temperature 48 °F -  
Max Temperature 53 °F 56 °F 76 °F (1938)
Min Temperature 43 °F 37 °F 16 °F (1951)
Degree Days  
Heating Degree Days 17    
Moisture  
Dew Point 40 °F    
Average Humidity 70    
Maximum Humidity 82    
Minimum Humidity 59    
Precipitation  
Precipitation 0.00 in - - ()
Sea Level Pressure  
Sea Level Pressure 30.01 in    
Wind  
Wind Speed 7 mph (NE)    
Max Wind Speed 15 mph    
Max Gust Speed 28 mph    
Visibility 9 miles    
Events      
Averages and records for this station are not official NWS values.
T = Trace of Precipitation, MM = Missing Value Source: NWS Daily Summary

Daily Weather History Graph

Daily Weather History Graph

Search for Another Location

Airport or City:

Trip Planner

Search our weather history database for the weather conditions in past years. The results will help you decide how hot, cold, wet, or windy it might be!

Date:

Astronomy

Nov. 03, 2011 Rise Set
Actual Time 8:11 AM EDT 6:30 PM EDT
Civil Twilight 7:42 AM EDT 6:59 PM EDT
Nautical Twilight 7:09 AM EDT 7:32 PM EDT
Astronomical Twilight 6:37 AM EDT 8:04 PM EDT
Moon 2:58 PM EDT (11/3) 1:18 AM EDT (11/3)
Length of Visible Light 11h 17m
Length of Day
10h 19m
First Quarter, 60% of the Moon is Illuminated
Nov 3
First Quarter
Nov 10
Full
Nov 18
Last Quarter
Nov 25
New
Dec 2
First Quarter

Hourly Weather History & Observations

Time (EDT) Temp. Dew Point Humidity Pressure Visibility Wind Dir Wind Speed Gust Speed Precip Events Conditions
12:53 AM 53.1 °F 39.0 °F 59% 30.02 in 10.0 mi South 6.9 mph - N/A   Clear
1:53 AM 53.1 °F 39.0 °F 59% 30.02 in 10.0 mi SSW 4.6 mph - N/A   Clear
2:53 AM 50.0 °F 39.0 °F 66% 30.01 in 10.0 mi South 4.6 mph - N/A   Clear
3:53 AM 48.9 °F 39.0 °F 69% 30.00 in 10.0 mi South 4.6 mph - N/A   Clear
4:53 AM 48.9 °F 39.0 °F 69% 29.99 in 10.0 mi South 5.8 mph - N/A   Clear
5:53 AM 48.0 °F 39.0 °F 71% 29.99 in 10.0 mi NW 6.9 mph - N/A   Scattered Clouds
6:53 AM 46.9 °F 39.0 °F 74% 30.00 in 10.0 mi Calm Calm - N/A   Scattered Clouds
7:53 AM 43.0 °F 37.9 °F 82% 30.00 in 10.0 mi Calm Calm - N/A   Clear
9:53 AM 46.9 °F 41.0 °F 80% 30.02 in 10.0 mi Calm Calm - N/A   Partly Cloudy
10:53 AM 50.0 °F 39.9 °F 68% 30.01 in 10.0 mi Calm Calm - N/A   Clear
11:53 AM 51.1 °F 42.1 °F 71% 30.02 in 10.0 mi NNE 6.9 mph - N/A   Clear
12:53 PM 51.1 °F 41.0 °F 68% 29.98 in 9.0 mi NE 12.7 mph - N/A   Clear
1:53 PM 52.0 °F 44.1 °F 74% 29.96 in 7.0 mi ENE 12.7 mph 18.4 mph N/A   Clear
2:42 PM 53.6 °F 44.6 °F 72% 29.96 in 6.0 mi NE 9.2 mph - N/A   Haze
2:53 PM 52.0 °F 44.1 °F 74% 29.96 in 7.0 mi NE 10.4 mph - N/A   Mostly Cloudy
3:53 PM 52.0 °F 44.1 °F 74% 29.97 in 8.0 mi ENE 13.8 mph 24.2 mph N/A   Overcast
4:53 PM 51.1 °F 43.0 °F 74% 29.97 in 10.0 mi NE 10.4 mph 19.6 mph N/A   Overcast
6:16 PM 50.0 °F 42.8 °F 76% 29.99 in 10.0 mi NE 6.9 mph - N/A   Overcast
8:53 PM 48.9 °F 39.9 °F 71% 30.05 in 10.0 mi NNE 12.7 mph 21.9 mph 0.00 in   Overcast
9:53 PM 48.9 °F 39.0 °F 69% 30.07 in 10.0 mi NE 13.8 mph 21.9 mph N/A   Overcast
10:53 PM 48.0 °F 37.9 °F 68% 30.10 in 10.0 mi NNE 13.8 mph 18.4 mph N/A   Overcast
11:04 PM 48.2 °F 37.4 °F 66% 30.09 in 10.0 mi NNE 15.0 mph 27.6 mph N/A   Overcast
11:53 PM 46.9 °F 36.0 °F 66% 30.10 in 10.0 mi NNE 15.0 mph 24.2 mph N/A   Overcast